776  
ASUS41 KOKX 161408  
RWROKX  
 
REGIONAL WEATHER ROUNDUP  
NATIONAL WEATHER SERVICE NEW YORK NY  
1000 AM EDT WED AUG 16 2017  
 
NOTE: "FAIR" INDICATES FEW OR NO CLOUDS BELOW 12,000 FEET WITH NO  
SIGNIFICANT WEATHER AND/OR S TO VISIBILITY
.  
 
NYZ071-072-176-178-NJZ106-104-161500-  
NEW YORK CITY METRO AREA  
 
CITY SKY/WX TMP DP RH WIND PRES REMARKS
 
CENTRAL PARK SUNNY 75 65 70 VRB3 29.99S  
BRONX BOT GARD N/A 77 64 65 W2 29.97F  
LAGUARDIA APRT MOSUNNY 77 66 68 N10 29.96R  
KENNEDY INTL MOSUNNY 80 69 69 NW7 29.97R  
BREEZY POINT N/A 77 N/A N/A W3 N/A  
NEWARK/LIBERTY MOSUNNY 79 63 57 N12 29.96S  
TETERBORO SUNNY 80 64 58 N8 29.95S  

 
 
NYZ177-179-078>081-161500-  
LONG ISLAND NEW YORK  
 
CITY SKY/WX TMP DP RH WIND PRES REMARKS
 
JONES BEACH N/A 75 N/A N/A N6 N/A  
MATINECOCK PT N/A 73 N/A N/A SW2 N/A  
FARMINGDALE SUNNY 77 65 66 N7 29.96R  
MACARTHUR/ISP MOSUNNY 78 66 66 N13 29.95R  
SHIRLEY SUNNY 79 67 66 N9 29.95R  
MT SINAI HARB N/A 77 N/A N/A NW1G7 N/A  
WESTHAMPTON SUNNY 78 65 63 N12 29.95S  
EAST HAMPTON FAIR 76 67 72 N7 29.93S  
MONTAUK N/A 74 69 85 NW9 29.94R  

 
 
NYZ052-065-067-161500-  
HUDSON VALLEY  
 
CITY SKY/WX TMP DP RH WIND PRES REMARKS
 
WHITE PLAINS SUNNY 77 64 64 N10 29.97R  
LARCHMONT HARB N/A 75 N/A N/A N10 N/A  
CROTON ON HUDS N/A 81 N/A N/A NW5G10 N/A  
NEWBURGH SUNNY 70 66 88 CALM 30.01R  
MONTGOMERY SUNNY 76 66 71 CALM 29.99R  
POUGHKEEPSIE MOSUNNY 74 64 71 N7 29.98S  
ALBANY PTSUNNY 74 63 68 NW7 29.99S  

 
 
NJZ001-105-106-008-010-013-015-019>022-104-161500-  
NEW JERSEY  
 
CITY SKY/WX TMP DP RH WIND PRES REMARKS
 
NEWARK/LIBERTY MOSUNNY 79 63 57 N12 29.96S  
TETERBORO SUNNY 80 64 58 N8 29.95S  
CALDWELL SUNNY 77 66 68 VRB5 29.98S  
SOMERVILLE SUNNY 79 67 66 N6 29.96S  
LINDEN FAIR 77 63 62 N6 29.97S  
PERTH AMBOY N/A 75 N/A N/A N8 N/A  
SUSSEX SUNNY 75 65 70 N8 30.01R  
ANDOVER N/A 74 65 73 VRB5 30.01S  
TRENTON MOSUNNY 77 69 76 N6 29.98R  
MILLVILLE MOSUNNY 79 74 84 W5 29.98S  
ATLANTIC CITY MOSUNNY 79 72 79 NW9 29.97S  
WRIGHTSTOWN SUNNY 75 70 83 N6 29.96R  
TOMS RIVER SUNNY 75 69 81 N6 29.98S  
BELMAR SUNNY 78 68 71 NW10 29.98S  

 
 
PAZ047>061-062-071-161500-  
EASTERN PENNSYLVANIA  
 
CITY SKY/WX TMP DP RH WIND PRES REMARKS
 
PHILADELPHIA PTSUNNY 80 70 71 NW7 29.98S  
ALLENTOWN SUNNY 71 67 87 CALM 30.00S  
SCRANTON CLOUDY 69 65 86 CALM 30.05S FOG  

 
 
CTZ002-004>006-009-010-012-RIZ004-006-007-MAZ004-011-015-161500-  
SOUTHERN NEW ENGLAND  
IN CT  
 
CITY SKY/WX TMP DP RH WIND PRES REMARKS
 
BRADLEY INTL MOSUNNY 77 65 66 VRB5 29.95S  
HARTFORD SUNNY 78 65 63 N10 29.94S  
DANBURY SUNNY 76 65 68 W7 29.98S  
WTRBURY/OXFORD MOSUNNY 74 64 71 NW9 29.98S  
NORWALK HARBOR N/A 75 N/A N/A NW6 N/A  
BRIDGEPORT SUNNY 78 64 61 N9 29.95R  
MERIDEN SUNNY 76 64 66 N8 29.94F  
NEW HAVEN SUNNY 78 64 61 NW9 29.94S  
CHESTER NOT AVBL  
GROTON SUNNY 78 66 66 N12 29.92S  
WILIMANTIC SUNNY 78 64 61 NW12 29.94S  
 
IN RI  
 
CITY SKY/WX TMP DP RH WIND PRES REMARKS
 
PROVIDENCE MOSUNNY 79 67 66 N14 29.93R  
BLOCK ISLAND SUNNY 74 69 85 VRB7 29.93S  
WESTERLY SUNNY 78 67 68 NW9 29.93S  
IN MA  
 
CITY SKY/WX TMP DP RH WIND PRES REMARKS
 
BOSTON MOSUNNY 78 61 55 NW12 29.93R  
WORCESTER MOSUNNY 73 59 61 NW12 29.97S  
WESTFIELD SUNNY 78 64 61 NW8 29.95S  
PROVINCETOWN SUNNY 74 66 76 NW13 29.91S  
NANTUCKET MOSUNNY 75 70 84 N12 29.89F  

 
 
ANZ330-335-338-340-345-350-353-355-161500-  
COASTAL MARINE OBSERVATIONS  
 
 
STATION/POSITION TIME SKY/WX TEMP WIND PRES VSBY WAVE
 
AIR SEA DIR/SP/G HT/PER  
(UTC) (F) (DEG/KT/KT) (MB) (MI) (FT/S)  
NY HARB ENTRANCE 1250 72 75 310/ 12/ 14 1013.9 5/12  
GREAT SOUTH BAY 1330 75 77 340/ 8/ 10 N/A  
23 SSW MONTAUK P 1250 71 71 1013.6 5/12  
15 E BARNEGAT LI 1330 76 N/A 5/11  
HUDSON CANYON 1250 74 74 340/ 12/ 16 1013.0 6/14  
KINGS POINT 1330 74 73 60/ 4/ 5 1014.3  
EXECUTION ROCKS NOT AVBL  
WESTERN LI SOUND NOT AVBL  
CENTRAL LI SOUND NOT AVBL  
EASTERN LI SOUND NOT AVBL  
ROBBINS REEF 1330 350/ 8/ 11 1015.1  

 
 
>>>>>>>>>>>>>>>>>>>>>>>>>>>> KEY <<<<<<<<<<<<<<<<<<<<<<<<<<<  
> <  
> SKY/WX - SKY CONDITION/PRESENT WEATHER <  
> TMP - TEMPERATURE IN FAHRENHEIT <  
> DP - DEW POINT IN FAHRENHEIT <  
> RH - RELATIVE HUMIDITY IN PERCENT <  
> WIND - DIRECTION (FROM) AND SPEED IN MPH <  
> PRES - MEAN SEA LEVEL PRESSURE (INCHES OF HG) <  
> WCI - WIND CHILL INDEX <  
> VSB - VISIBILITY IN MILES <  
> HX - HEAT INDEX <  
> TC - TEMPERATURE IN CELSIUS <  
> VRB - VARIABLE WIND DIRECTION <  
> <  
>>>>>>>>>>>>>>>>>>>>>>>>>>>> KEY <<<<<<<<<<<<<<<<<<<<<<<<<<<  
 
 
CLICK HERE TO GO TO PREVIOUS BULLETINS.

The Nexlab NY Page
The Nexlab NJ Page
The Nexlab CT Page Main Text Page